This is the latest recevied weather packets stored in our database for station/object G1SCQ. If no packets are shown the sender has not sent any weather packets the latest 10 day(s).
| Time | Temp. | Humidity | Pressure | Rain* | Wind** | Luminosity | Snow |
|---|---|---|---|---|---|---|---|
| 1778258165 | 16.67° C | 58% | 1016.9 hPa | 0 mm | - | 231 W/m² | - |
| 1778257636 | 16.67° C | 58% | 1017.1 hPa | 0 mm | - | 243 W/m² | - |
| 1778257085 | 16.67° C | 59% | 1016.8 hPa | 0 mm | - | 260 W/m² | - |
| 1778256545 | 17.78° C | 57% | 1017 hPa | 0 mm | - | 279 W/m² | - |
| 1778256005 | 17.78° C | 56% | 1016.9 hPa | 0 mm | - | 326 W/m² | - |
| 1778255645 | 17.78° C | 56% | 1016.7 hPa | 0 mm | - | 363 W/m² | - |
| 1778255105 | 18.33° C | 54% | 1017 hPa | 0 mm | - | 336 W/m² | - |
| 1778254565 | 18.33° C | 53% | 1016.9 hPa | 0 mm | - | 423 W/m² | - |
| 1778254025 | 18.33° C | 52% | 1016.9 hPa | 0 mm | - | 454 W/m² | - |
| 1778253485 | 18.33° C | 51% | 1017 hPa | 0 mm | - | 469 W/m² | - |
| 1778252945 | 18.89° C | 51% | 1017 hPa | 0 mm | - | 489 W/m² | - |
| 1778252408 | 18.33° C | 51% | 1017 hPa | 0 mm | - | 484 W/m² | - |
| 1778252045 | 17.78° C | 51% | 1017.1 hPa | 0 mm | - | 503 W/m² | - |
| 1778251505 | 17.78° C | 53% | 1017.1 hPa | 0 mm | - | 521 W/m² | - |
| 1778250965 | 18.33° C | 54% | 1017 hPa | 0 mm | - | 521 W/m² | - |
| 1778250425 | 18.33° C | 54% | 1017.1 hPa | 0 mm | - | 550 W/m² | - |
| 1778249885 | 18.33° C | 54% | 1016.9 hPa | 0 mm | - | 566 W/m² | - |
| 1778249345 | 18.89° C | 54% | 1017.2 hPa | 0 mm | - | 583 W/m² | - |
| 1778248805 | 18.33° C | 55% | 1017.1 hPa | 0 mm | - | 587 W/m² | - |
| 1778248445 | 18.33° C | 56% | 1017.1 hPa | 0 mm | - | 596 W/m² | - |
| 1778247905 | 18.89° C | 55% | 1017.3 hPa | 0 mm | - | 576 W/m² | - |
| 1778247365 | 18.33° C | 57% | 1017.2 hPa | 0 mm | - | 601 W/m² | - |
| 1778246825 | 18.89° C | 56% | 1017.2 hPa | 0 mm | - | 631 W/m² | - |
| 1778246285 | 18.89° C | 58% | 1017.4 hPa | 0 mm | - | 628 W/m² | - |
| 1778245745 | 18.89° C | 57% | 1017.4 hPa | 0 mm | - | 618 W/m² | - |
* Rain latest hour (hover to see other rain measurements)
** Current wind speed in m/s (hover to see current wind gust speed)